Location: �perlecques
(50.8057°N, 2.1521°E)
Time: 20:18:57
(UTC+00:00)

Tiros 1 - Pass Details

Date: 09 August 2021
Orbit: 630 x 663 km, 48.4° (Epoch: 28 September)

Event Time Altitude Azimuth Distance (km) Brightness Sun altitude
Rises 21:29:47 0° 275° (W) 2,976 11.2 -16.2°
Reaches altitude 10° 21:34:15 10° 236° (SW) 2,049 9.7 -16.6°
Maximum altitude 21:35:08 11° 225° (SW) 2,014 9.6 -16.7°
Drops below altitude 10° 21:36:01 10° 214° (SW) 2,043 9.5 -16.8°
Enters shadow 21:36:45 - 206° (SSW) 2,114 9.5 -16.9°
Sets 21:40:26 0° 175° (S) 2,935 - -17.2°
